THORAD DELTA 1 DEB, 8169

Orbit data source: Space-Track

THORAD DELTA 1 DEB, 8169 is space debris in SSO originally from a launch on Fri, 15 Nov 1974 UTC launched from the Air Force Western Test Range (AFWTR). Debris objects in space refer to the collection of defunct objects orbiting the Earth. Examples of debris include non-operational satellites, rocket bodies, and fragments generated from explosions, collisions, or faulty payload assembly.

Loading next visibility...
Identifier
8169, 1974-089AK
Orbit
SSO
Country
Flag of USUS
Related business
Manufacturer
Unknown
Mission
Spacecraft
Bus & Motor
Unknown
Mass
Unknown
Launch date (UTC)
1974-11-15 (51 years ago)
Launch vehicle
Unknown
Launch site
Air Force Western Test Range (AFWTR)
Object type
Payload
Rocket body
Debris
Shape & HBR
Unknown shape, 0.1 m
Radar Cross Section
Small (<0.1 m²)

Expand to show TLE details & history
Last TLE update: 17 hours ago

TLE from 17 hours ago
0 THORAD DELTA 1 DEB
1 08169U 74089AK  25302.48158888  .00000016  00000-0  25409-3 0  9994
2 08169 102.5174 258.3564 0129353 253.7245 224.7101 12.93705767370936
Epoch: 2025-10-29T11:33Z
TLE epoch observation values (Epoch: 2025-10-29T11:33:29.279Z)
Latitude
60.16837°
Longitude
-110.41087°
Altitude
1,367.982 km
Speed
7.147 km/s
True Right ascension
06h 44m 03s
True Declination
60° 01' 53"
Sunlit
Object was in daylight at epoch
Visualization orbit readout
Latitude
Unknown
Longitude
Unknown
Altitude
Unknown
Speed
Unknown
Apparent Right ascension
Unknown
Apparent Declination
Unknown
Sunlit
N/A
Visualization observer readout
Local Sidereal Time
00:17:01
Azimuth
Unknown
Elevation
Unknown
Doppler factor
Unknown
Orbital elements
Apogee altitude
1,383.505 km
Perigee altitude
1,185.271 km
Semi-major axis
7,662.525 km
Eccentricity
0.01294
Inclination
102.5174°
RAAN
258.3564°
Arg. of periapsis
253.7245°
True anomaly
223.6792°
Mean anomaly
224.7101°
Eccentric anomaly
224.19346°
Mean motion
3.23583 °/min
Orbital period
111.25 mins
BSTAR
0.00025409
Loading maneuver chart data...
Computing Atmospheric mass density...
Loading historical data...
Loading historical data...
Loading historical data...
Loading historical data...
Loading historical data...
Loading historical data...
Loading historical data...

Documentation

Showing up to 5 results
|